Weather History for Brazos 451, TX

Change the Weather History Date:

Thursday, January 30, 2014

  Actual Average Record
Temperature  
Mean Temperature 55 °F -  
Max Temperature 64 °F - - ()
Min Temperature 46 °F - - ()
Degree Days  
Heating Degree Days 10    
Growing Degree Days 5 (Base 50)    
Moisture  
Dew Point 47 °F    
Average Humidity 68    
Maximum Humidity 83    
Minimum Humidity 46    
Precipitation  
Precipitation 0.00 in - - ()
Sea Level Pressure  
Sea Level Pressure 30.11 in    
Wind  
Wind Speed 13 mph (SE)    
Max Wind Speed 28 mph    
Max Gust Speed 31 mph    
Visibility 10 miles    
Events      
T = Trace of Precipitation, MM = Missing Value Source: NWS Daily Summary

Daily Weather History Graph

Daily Weather History Graph

Search for Another Location

Airport:

Trip Planner

Search our weather history database for the weather conditions in past years. The results will help you decide how hot, cold, wet, or windy it might be!

Date:

Astronomy

Jan. 30, 2014 Rise Set
Actual Time 7:11 AM CST 6:00 PM CST
Civil Twilight 6:47 AM CST 6:25 PM CST
Nautical Twilight 6:18 AM CST 6:54 PM CST
Astronomical Twilight 5:50 AM CST 7:21 PM CST
Moon 6:41 AM CST (1/30) 6:08 PM CST (1/30)
Length of Visible Light 11h 38m
Length of Day
10h 49m
Waning Crescent, 0% of the Moon is Illuminated
Jan 30
Waning Crescent
Jan 30
New
Feb 6
First Quarter
Feb 14
Full
Feb 22
Last Quarter

Hourly Weather History & Observations

Time (CST) Temp. Windchill Dew Point Humidity Pressure Visibility Wind Dir Wind Speed Gust Speed Precip Events Conditions
12:15 AM 46.4 °F 42.4 °F 28.4 °F 50% 30.29 in 10.0 mi East 8.1 mph 16.1 mph N/A   Partly Cloudy
12:35 AM 46.4 °F 41.1 °F 28.4 °F 50% 30.28 in 10.0 mi East 11.5 mph 19.6 mph N/A   Clear
12:55 AM 48.2 °F - 28.4 °F 46% 30.28 in 10.0 mi East 10.4 mph 17.3 mph N/A   Clear
1:15 AM 48.2 °F - 32.0 °F 54% 30.28 in 10.0 mi East 8.1 mph 15.0 mph N/A   Partly Cloudy
1:35 AM 48.2 °F - 30.2 °F 50% 30.27 in 10.0 mi ESE 8.1 mph 13.8 mph N/A   Partly Cloudy
1:55 AM 48.2 °F - 32.0 °F 54% 30.27 in 10.0 mi East 8.1 mph 17.3 mph N/A   Partly Cloudy
2:15 AM 48.2 °F - 32.0 °F 54% 30.27 in 10.0 mi ESE 6.9 mph 15.0 mph N/A   Clear
2:35 AM 48.2 °F - 32.0 °F 54% 30.25 in 10.0 mi ESE 8.1 mph 15.0 mph N/A   Mostly Cloudy
2:55 AM 48.2 °F - 33.8 °F 58% 30.24 in 10.0 mi ESE 6.9 mph 17.3 mph N/A   Overcast
3:15 AM 48.2 °F - 33.8 °F 58% 30.23 in 10.0 mi ESE 6.9 mph 19.6 mph N/A   Overcast
3:35 AM 50.0 °F - 35.6 °F 58% 30.22 in 10.0 mi East 9.2 mph 16.1 mph N/A   Overcast
3:55 AM 50.0 °F - 35.6 °F 58% 30.22 in 10.0 mi East 10.4 mph 17.3 mph N/A   Overcast
4:15 AM 50.0 °F - 35.6 °F 58% 30.21 in 10.0 mi East 9.2 mph 17.3 mph N/A   Overcast
4:35 AM 50.0 °F - 35.6 °F 58% 30.20 in 10.0 mi ESE 8.1 mph 17.3 mph N/A   Overcast
4:55 AM 50.0 °F - 37.4 °F 62% 30.20 in 10.0 mi ESE 8.1 mph 15.0 mph N/A   Overcast
5:15 AM 51.8 °F - 39.2 °F 62% 30.18 in 10.0 mi ESE 10.4 mph 16.1 mph N/A   Overcast
5:35 AM 51.8 °F - 39.2 °F 62% 30.18 in 10.0 mi ESE 8.1 mph 17.3 mph N/A   Overcast
5:55 AM 51.8 °F - 39.2 °F 62% 30.18 in 10.0 mi ESE 8.1 mph 18.4 mph N/A   Overcast
6:15 AM 51.8 °F - 41.0 °F 67% 30.19 in 10.0 mi ESE 8.1 mph 17.3 mph N/A   Overcast
6:35 AM 51.8 °F - 41.0 °F 67% 30.19 in 10.0 mi ESE 9.2 mph 19.6 mph N/A   Overcast
6:55 AM 53.6 °F - 42.8 °F 67% 30.19 in 10.0 mi ESE 13.8 mph 23.0 mph N/A   Overcast
7:15 AM 53.6 °F - 42.8 °F 67% 30.19 in 10.0 mi ESE 8.1 mph 21.9 mph N/A   Overcast
7:35 AM 53.6 °F - 42.8 °F 67% 30.18 in 10.0 mi ESE 8.1 mph 18.4 mph N/A   Scattered Clouds
7:55 AM 53.6 °F - 44.6 °F 72% 30.17 in 10.0 mi ESE 11.5 mph 24.2 mph N/A   Scattered Clouds
8:15 AM 55.4 °F - 44.6 °F 67% 30.17 in 10.0 mi SE 18.4 mph - N/A   Partly Cloudy
8:35 AM 55.4 °F - 44.6 °F 67% 30.17 in 9.0 mi SE 18.4 mph 24.2 mph N/A   Mostly Cloudy
8:55 AM 57.2 °F - 46.4 °F 67% 30.17 in 10.0 mi SE 11.5 mph 25.3 mph N/A   Mostly Cloudy
9:15 AM 57.2 °F - 46.4 °F 67% 30.17 in 10.0 mi SE 13.8 mph - N/A   Scattered Clouds
9:35 AM 57.2 °F - 46.4 °F 67% 30.17 in 10.0 mi SE 11.5 mph 24.2 mph N/A   Scattered Clouds
9:55 AM 57.2 °F - 46.4 °F 67% 30.19 in 10.0 mi SSE 11.5 mph - N/A   Mostly Cloudy
10:15 AM 59.0 °F - 46.4 °F 63% 30.18 in 10.0 mi SE 12.7 mph 18.4 mph N/A   Mostly Cloudy
10:35 AM 59.0 °F - 46.4 °F 63% 30.18 in 6.0 mi SE 12.7 mph 19.6 mph N/A   Haze
10:55 AM 59.0 °F - 46.4 °F 63% 30.18 in 9.0 mi North - - N/A   Overcast
11:15 AM 59.0 °F - 48.2 °F 67% 30.17 in 5.0 mi SSE 11.5 mph 18.4 mph N/A   Haze
11:35 AM 59.0 °F - 48.2 °F 67% 30.16 in 8.0 mi SSE 16.1 mph - N/A   Overcast
11:55 AM 60.8 °F - 48.2 °F 63% 30.15 in 5.0 mi SSE 15.0 mph 21.9 mph N/A   Haze
12:15 PM 60.8 °F - 48.2 °F 63% 30.13 in 9.0 mi SSE 16.1 mph 21.9 mph N/A   Overcast
12:35 PM 60.8 °F - 50.0 °F 68% 30.12 in 9.0 mi SSE 16.1 mph 24.2 mph N/A   Overcast
12:55 PM 60.8 °F - 50.0 °F 68% 30.11 in 4.0 mi SSE 19.6 mph - N/A   Haze
1:15 PM 60.8 °F - 50.0 °F 68% 30.10 in 10.0 mi SSE 11.5 mph 20.7 mph N/A   Overcast
1:35 PM 60.8 °F - 50.0 °F 68% 30.08 in 10.0 mi SSE 11.5 mph 20.7 mph N/A   Overcast
1:55 PM 60.8 °F - 50.0 °F 68% 30.07 in 10.0 mi SSE 19.6 mph - N/A   Overcast
2:15 PM 60.8 °F - 50.0 °F 68% 30.06 in 10.0 mi SSE 18.4 mph 24.2 mph N/A   Overcast
2:35 PM 60.8 °F - 51.8 °F 72% 30.05 in - SSE 18.4 mph - N/A   Overcast
2:55 PM 60.8 °F - 51.8 °F 72% 30.05 in 10.0 mi SSE 16.1 mph 21.9 mph N/A   Overcast
3:15 PM 60.8 °F - 51.8 °F 72% 30.05 in 10.0 mi SSE 21.9 mph - N/A   Overcast
3:35 PM 60.8 °F - 51.8 °F 72% 30.04 in 10.0 mi SSE 19.6 mph - N/A   Overcast
3:55 PM 60.8 °F - 51.8 °F 72% 30.03 in 10.0 mi SSE 18.4 mph 25.3 mph N/A   Overcast
4:15 PM 62.6 °F - 51.8 °F 68% 30.03 in 10.0 mi SSE 17.3 mph - N/A   Overcast
4:35 PM 62.6 °F - 53.6 °F 72% 30.03 in 10.0 mi SSE 18.4 mph 25.3 mph N/A   Overcast
4:55 PM 62.6 °F - 53.6 °F 72% 30.01 in 10.0 mi SSE 18.4 mph 26.5 mph N/A   Overcast
5:15 PM 62.6 °F - 53.6 °F 72% 30.01 in 10.0 mi SSE 19.6 mph 26.5 mph N/A   Overcast
5:35 PM 62.6 °F - 55.4 °F 77% 30.02 in 10.0 mi SSE 19.6 mph - N/A   Overcast
5:55 PM 62.6 °F - 55.4 °F 77% 30.01 in 10.0 mi SSE 20.7 mph - N/A   Overcast
6:15 PM 62.6 °F - 55.4 °F 77% 30.01 in 10.0 mi SSE 20.7 mph - N/A   Overcast
6:35 PM 62.6 °F - 55.4 °F 77% 30.00 in 10.0 mi SSE 23.0 mph - N/A   Overcast
6:55 PM 62.6 °F - 55.4 °F 77% 30.00 in 10.0 mi SSE 20.7 mph - N/A   Overcast
7:15 PM 62.6 °F - 55.4 °F 77% 29.99 in 10.0 mi SSE 20.7 mph 27.6 mph N/A   Overcast
7:35 PM 62.6 °F - 55.4 °F 77% 29.99 in 10.0 mi SSE 25.3 mph - N/A   Overcast
7:55 PM 62.6 °F - 55.4 °F 77% 29.99 in 10.0 mi SSE 25.3 mph - N/A   Overcast
8:15 PM 64.4 °F - 55.4 °F 73% 29.98 in 10.0 mi SSE 25.3 mph - N/A   Overcast
8:35 PM 64.4 °F - 57.2 °F 77% 29.98 in 10.0 mi SSE 25.3 mph - N/A   Overcast
8:55 PM 64.4 °F - 57.2 °F 77% 29.97 in 10.0 mi SSE 27.6 mph - N/A   Mostly Cloudy
9:15 PM 64.4 °F - 57.2 °F 77% 29.98 in 10.0 mi SSE 24.2 mph 31.1 mph N/A   Partly Cloudy
9:35 PM 64.4 °F - 57.2 °F 77% 29.98 in 10.0 mi SSE 25.3 mph - N/A   Partly Cloudy
9:55 PM 64.4 °F - 57.2 °F 77% 29.97 in 10.0 mi SSE 27.6 mph - N/A   Clear
10:15 PM 64.4 °F - 57.2 °F 77% 29.97 in 10.0 mi SSE 25.3 mph - N/A   Clear
10:35 PM 64.4 °F - 57.2 °F 77% 29.97 in 10.0 mi SSE 24.2 mph - N/A   Scattered Clouds
10:55 PM 64.4 °F - 57.2 °F 77% 29.96 in 10.0 mi SSE 24.2 mph - N/A   Mostly Cloudy
11:15 PM 64.4 °F - 59.0 °F 83% 29.96 in 10.0 mi South 24.2 mph - N/A   Mostly Cloudy
11:35 PM 64.4 °F - 59.0 °F 83% 29.96 in 10.0 mi South 23.0 mph - N/A   Mostly Cloudy
11:55 PM 64.4 °F - 59.0 °F 83% 29.96 in 10.0 mi South 24.2 mph - N/A   Overcast